Date,TemperatureHighF,TemperatureAvgF,TemperatureLowF,DewpointHighF,DewpointAvgF,DewpointLowF,HumidityHigh,HumidityAvg,HumidityLow,PressureMaxIn,PressureMinIn,WindSpeedMaxMPH,WindSpeedAvgMPH,GustSpeedMaxMPH,PrecipitationSumIn
2013-1-1,55.0,46.9,42.0,28.0,21.0,16.0,44,37,23,30.32,30.18,27,7,36,0.00
2013-1-4,62.0,61.7,61.0,14.0,14.0,14.0,16,15,15,30.26,30.21,4,1,6,0.00
2013-1-7,61.0,56.6,47.0,29.0,24.0,19.0,47,29,20,30.18,30.05,24,14,40,0.00
2013-1-8,71.0,62.6,48.0,37.0,29.4,20.0,45,29,22,30.17,30.08,17,6,29,0.00
2013-1-9,72.0,59.6,48.0,41.0,36.2,33.0,72,44,26,30.19,30.05,5,1,14,0.00
2013-1-10,50.0,46.7,42.0,46.0,34.2,18.0,88,65,34,30.12,29.96,11,4,19,0.11
2013-1-11,42.0,35.6,31.0,25.0,23.0,18.0,73,61,38,30.27,30.13,3,1,6,0.00
2013-1-14,44.0,42.9,39.0,6.0,1.2,-1.0,20,17,15,30.46,30.35,26,9,30,0.00
2013-1-15,61.0,50.6,42.0,25.0,17.1,5.0,34,26,21,30.51,30.37,19,8,29,0.00
2013-1-16,66.0,59.9,53.0,25.0,23.3,22.0,31,25,19,30.43,30.22,21,12,29,0.00
2013-1-17,68.0,65.1,61.0,19.0,16.0,14.0,16,15,14,30.26,30.15,29,17,33,0.00
2013-1-18,69.0,64.7,56.0,20.0,17.4,14.0,22,16,15,30.23,30.14,31,14,33,0.00
2013-1-21,73.0,68.0,56.0,15.0,9.6,6.0,18,10,9,30.18,30.08,19,12,31,0.00
2013-1-22,79.0,61.9,47.0,29.0,16.4,7.0,33,19,7,30.19,30.06,5,1,16,0.00
2013-1-23,75.0,63.5,53.0,43.0,33.3,25.0,53,33,22,30.17,30.08,5,1,9,0.00
2013-1-24,65.0,57.4,52.0,53.0,49.2,41.0,90,75,54,30.29,30.16,5,1,9,0.37
2013-1-25,60.0,57.6,55.0,56.0,53.1,49.0,91,85,69,30.23,30.02,6,2,13,0.68
2013-1-26,62.0,57.6,55.0,56.0,53.8,52.0,91,88,78,30.04,29.95,4,1,12,0.14
2013-1-27,56.0,52.8,43.0,52.0,46.3,36.0,92,80,60,30.09,30.00,9,4,15,0.25
2013-1-28,54.0,46.0,38.0,37.0,30.0,25.0,86,56,33,30.26,30.09,11,3,20,0.00
2013-1-29,56.0,44.8,35.0,37.0,32.1,27.0,79,63,39,30.33,30.23,6,1,9,0.00
2013-1-30,67.0,52.9,41.0,39.0,37.7,35.0,83,60,35,30.41,30.28,3,2,8,0.00
2013-1-31,72.0,65.8,58.0,37.0,34.6,33.0,39,32,25,30.29,30.16,21,8,26,0.00
2013-2-1,75.0,61.0,50.0,44.0,37.1,33.0,62,43,23,30.25,30.16,4,1,10,0.00
2013-2-2,73.0,63.4,54.0,42.0,38.6,34.0,61,42,28,30.28,30.17,5,2,12,0.00
2013-2-3,71.0,62.9,53.0,43.0,40.4,37.0,63,45,30,30.19,30.05,16,6,22,0.01
2013-2-4,73.0,58.7,48.0,45.0,41.2,36.0,79,55,32,30.15,30.01,5,2,16,0.00
2013-2-5,63.0,53.0,45.0,50.0,45.1,40.0,85,75,61,30.15,30.03,9,2,9,0.00
2013-2-6,63.0,53.8,46.0,48.0,45.3,40.0,87,74,53,30.19,30.05,5,1,10,0.00
2013-2-7,63.0,51.5,41.0,47.0,42.7,38.0,90,74,48,30.21,30.04,7,2,15,0.00
2013-2-8,48.0,42.2,36.0,41.0,37.4,33.0,88,83,76,30.07,29.97,9,2,14,0.47
2013-2-9,49.0,41.8,34.0,38.0,34.4,31.0,90,76,56,30.19,30.02,9,2,11,0.00
2013-2-10,50.0,44.6,37.0,38.0,35.3,32.0,83,71,55,30.20,30.10,4,1,10,0.00
2013-2-11,56.0,47.7,38.0,37.0,21.0,9.0,84,41,15,30.32,30.14,19,6,28,0.00
2013-2-12,62.0,49.2,36.0,34.0,20.1,15.0,62,34,18,30.42,30.30,6,2,19,0.00
2013-2-13,69.0,56.1,40.0,35.0,26.1,16.0,76,36,18,30.34,30.17,17,6,23,0.00
2013-2-14,73.0,61.4,45.0,34.0,28.7,24.0,66,33,18,30.25,30.14,23,6,25,0.00
2013-2-15,74.0,66.9,60.0,26.0,22.0,17.0,25,18,14,30.28,30.18,33,15,38,0.00
2013-2-16,77.0,62.4,48.0,29.0,21.8,16.0,36,23,10,30.26,30.03,4,1,9,0.00
2013-2-17,68.0,55.9,43.0,39.0,29.9,23.0,73,41,18,30.09,29.97,4,1,12,0.00
2013-2-18,63.0,50.1,41.0,45.0,40.2,36.0,91,72,37,30.16,30.00,5,2,7,0.00
2013-2-19,50.0,46.7,42.0,44.0,40.4,35.0,88,79,64,30.03,29.77,10,3,15,0.62
2013-2-20,55.0,44.3,38.0,37.0,34.5,32.0,88,71,42,30.09,29.76,6,2,12,0.10
2013-2-21,56.0,46.2,39.0,37.0,31.2,23.0,82,59,28,30.19,30.04,9,2,16,0.00
2013-2-22,63.0,49.2,37.0,36.0,29.7,26.0,71,50,25,30.28,30.18,7,2,13,0.00
2013-2-23,62.0,50.6,39.0,40.0,33.0,22.0,78,54,30,30.25,29.97,24,4,31,0.00
2013-2-24,60.0,53.6,48.0,22.0,8.7,4.0,29,17,11,30.29,30.01,33,11,56,0.00
2013-2-25,67.0,52.1,39.0,31.0,19.3,9.0,59,30,14,30.31,30.14,7,2,12,0.00
2013-2-26,68.0,58.0,38.0,31.0,19.9,10.0,69,27,14,30.20,30.06,30,11,37,0.00
2013-2-27,67.0,60.5,54.0,15.0,12.1,8.0,19,15,11,30.35,30.20,18,7,28,0.00
2013-2-28,75.0,64.6,52.0,21.0,15.3,6.0,22,15,11,30.38,30.28,17,6,24,0.00
2013-3-1,81.0,70.4,57.0,30.0,22.4,13.0,35,17,13,30.37,30.20,20,9,31,0.00
2013-3-2,81.0,65.4,51.0,36.0,29.1,24.0,43,28,13,30.29,30.13,5,2,10,0.00
2013-3-3,70.0,60.8,51.0,40.0,33.0,27.0,63,36,21,30.15,30.01,10,2,11,0.00
2013-3-4,67.0,56.1,47.0,47.0,44.3,39.0,83,66,47,30.16,30.06,8,2,12,0.00
2013-3-5,68.0,55.9,45.0,50.0,45.5,41.0,89,70,43,30.18,30.06,7,2,11,0.00
2013-3-6,58.0,52.0,47.0,46.0,42.9,41.0,85,72,54,30.22,30.07,9,2,13,0.02
2013-3-7,52.0,49.9,47.0,47.0,45.2,42.0,90,84,71,30.09,29.94,7,2,13,0.39
2013-3-8,49.0,45.2,42.0,43.0,39.9,37.0,88,81,62,30.11,29.85,6,2,15,0.52
2013-3-9,59.0,50.4,43.0,43.0,41.6,39.0,89,73,53,30.29,30.10,6,1,10,0.01
2013-3-10,72.0,61.5,44.0,39.0,27.0,20.0,81,31,16,30.33,30.19,15,7,24,0.00
2013-3-11,79.0,61.2,48.0,42.0,33.2,27.0,57,39,15,30.25,30.09,5,1,6,0.00
2013-3-12,86.0,66.6,50.0,43.0,37.4,32.0,61,39,16,30.14,30.04,5,2,7,0.00
2013-3-13,90.0,71.2,55.0,47.0,38.7,34.0,52,35,14,30.16,30.05,4,2,10,0.00
2013-3-14,92.0,72.4,57.0,46.0,42.0,34.0,60,38,13,30.14,30.01,4,1,12,0.00
2013-3-15,86.0,68.8,56.0,47.0,43.6,36.0,64,44,17,30.07,29.95,6,1,12,0.00
2013-3-16,78.0,62.3,49.0,49.0,45.0,41.0,76,56,30,30.00,29.89,6,2,14,0.00
2013-3-17,73.0,58.1,49.0,51.0,47.7,45.0,90,71,39,30.06,29.96,7,2,10,0.00
2013-3-18,67.0,56.8,49.0,51.0,48.4,45.0,89,75,55,30.14,30.03,5,1,9,0.00
2013-3-19,68.0,56.5,49.0,52.0,48.5,45.0,88,76,53,30.17,30.09,4,1,9,0.00
2013-3-20,71.0,60.3,50.0,52.0,49.0,46.0,86,68,43,30.16,30.01,6,1,8,0.00
2013-3-21,73.0,59.7,49.0,50.0,48.0,45.0,88,68,41,30.01,29.85,7,2,13,0.00
2013-3-22,76.0,60.1,48.0,50.0,43.8,30.0,90,61,21,29.96,29.84,8,3,21,0.00
2013-3-23,78.0,61.8,47.0,49.0,41.7,27.0,86,55,16,30.07,29.94,12,2,19,0.00
2013-3-24,79.0,62.7,47.0,47.0,41.3,27.0,80,53,15,30.06,29.92,11,3,14,0.00
2013-3-25,80.0,64.5,50.0,47.0,41.5,32.0,71,48,18,30.02,29.92,7,2,11,0.00
2013-3-26,75.0,61.6,49.0,47.0,43.6,36.0,74,55,25,30.01,29.92,6,2,10,0.00
2013-3-27,73.0,58.9,49.0,50.0,46.1,44.0,85,65,36,30.09,29.97,7,2,13,0.00
2013-3-28,76.0,61.5,48.0,52.0,47.4,43.0,87,63,32,30.12,30.04,10,1,11,0.00
2013-3-29,81.0,64.9,49.0,53.0,47.7,39.0,83,59,22,30.15,30.05,6,2,11,0.00
2013-3-30,77.0,63.9,54.0,52.0,48.2,45.0,84,60,32,30.16,30.06,8,1,9,0.00
2013-3-31,68.0,57.9,48.0,51.0,46.7,39.0,79,67,50,30.18,30.08,10,2,19,0.00
2013-4-1,63.0,56.9,52.0,50.0,47.6,45.0,85,72,52,30.22,30.12,6,3,11,0.00
2013-4-2,73.0,61.0,51.0,50.0,48.3,44.0,85,66,35,30.14,30.01,5,2,11,0.00
2013-4-3,85.0,62.1,50.0,50.0,45.1,37.0,82,61,18,30.13,30.02,5,1,11,0.00
2013-4-7,59.0,56.7,55.0,51.0,49.3,48.0,77,76,75,29.88,29.88,0,0,2,0.00
2013-4-8,61.0,54.6,50.0,50.0,46.6,42.0,89,75,51,29.89,29.71,5,2,12,0.20
2013-4-9,72.0,57.8,45.0,43.0,29.8,15.0,82,41,11,30.07,29.89,25,7,40,0.00
2013-4-10,81.0,67.5,57.0,32.0,23.1,14.0,37,20,9,30.15,29.99,16,6,26,0.00
2013-4-11,79.0,63.9,50.0,48.0,36.0,28.0,72,39,19,30.07,29.79,5,1,12,0.00
2013-4-12,80.0,62.6,50.0,52.0,49.3,46.0,87,66,34,29.94,29.79,7,1,11,0.00
2013-4-13,73.0,59.5,50.0,54.0,50.5,46.0,90,73,47,29.97,29.86,6,1,11,0.00
2013-4-14,58.0,54.1,51.0,51.0,49.3,48.0,89,84,71,29.95,29.88,5,1,6,0.03
2013-4-15,58.0,53.8,51.0,50.0,48.4,46.0,90,82,70,29.97,29.89,7,1,12,0.09
2013-4-16,61.0,53.2,47.0,46.0,40.1,25.0,84,63,31,30.03,29.92,7,3,20,0.01
2013-4-17,68.0,58.3,49.0,29.0,18.9,9.0,42,23,10,30.22,30.03,23,7,26,0.00
2013-4-18,74.0,63.5,54.0,20.0,13.4,9.0,26,15,9,30.30,30.16,14,6,26,0.00
2013-4-19,83.0,69.1,55.0,26.0,19.0,10.0,27,16,9,30.23,30.00,6,2,15,0.00
2013-4-20,90.0,72.0,54.0,45.0,34.1,26.0,47,27,11,30.05,29.89,18,4,31,0.00
2013-4-21,88.0,70.9,56.0,45.0,40.2,34.0,55,37,15,30.03,29.94,7,2,14,0.00
2013-4-22,81.0,64.3,51.0,50.0,46.2,42.0,80,56,25,30.03,29.90,6,2,14,0.00
2013-4-23,84.0,64.5,53.0,51.0,48.5,42.0,84,61,23,30.00,29.86,5,2,11,0.00
2013-4-24,71.0,59.3,52.0,54.0,50.3,47.0,85,73,53,30.02,29.92,9,2,18,0.00
2013-4-25,68.0,59.5,55.0,49.0,47.2,44.0,75,64,48,30.18,30.00,4,1,9,0.00
2013-4-26,82.0,64.2,49.0,50.0,46.4,43.0,83,57,27,30.21,30.12,11,2,12,0.00
2013-4-27,89.0,70.0,53.0,50.0,46.3,38.0,71,48,17,30.20,30.02,11,2,12,0.00
2013-4-28,89.0,70.4,53.0,56.0,50.4,44.0,82,54,21,30.04,29.88,5,1,11,0.00
2013-4-29,88.0,68.8,53.0,55.0,50.7,46.0,84,58,24,29.92,29.80,4,1,10,0.00
2013-4-30,75.0,63.0,54.0,53.0,51.3,48.0,86,68,39,29.94,29.83,3,1,10,0.00
2013-5-1,90.0,70.3,58.0,53.0,38.6,5.0,79,48,5,30.12,29.92,14,4,25,0.00
2013-5-2,85.0,77.9,60.0,48.0,6.5,0.0,64,9,4,30.17,30.05,34,22,50,0.00
2013-5-3,92.0,77.7,65.0,28.0,17.4,5.0,23,11,6,30.08,29.81,14,3,18,0.00
2013-5-4,83.0,68.2,56.0,51.0,33.5,23.0,78,31,11,29.87,29.74,13,3,15,0.00
2013-5-5,64.0,59.0,56.0,52.0,47.8,45.0,79,67,50,30.00,29.86,6,2,18,0.00
2013-5-6,61.0,57.4,54.0,54.0,50.4,47.0,87,77,66,30.08,29.97,6,2,12,0.26
2013-5-7,65.0,58.0,51.0,51.0,47.8,46.0,85,70,50,30.12,30.05,5,1,11,0.08
2013-5-8,68.0,59.9,55.0,50.0,48.3,46.0,81,66,50,30.16,30.09,15,2,15,0.00
2013-5-9,75.0,60.9,49.0,53.0,48.9,44.0,84,67,42,30.16,30.05,7,1,11,0.00
2013-5-10,85.0,68.4,54.0,56.0,53.3,50.0,89,63,32,30.14,30.03,5,2,15,0.00
2013-5-11,95.0,76.0,59.0,57.0,52.2,45.0,80,50,19,30.11,29.98,3,1,14,0.00
2013-5-12,100.0,82.5,65.0,50.0,44.2,37.0,51,30,12,30.08,29.92,7,1,12,0.00
2013-5-13,100.0,85.1,68.0,48.0,43.8,40.0,43,26,13,29.99,29.88,8,2,15,0.00
2013-5-14,88.0,75.8,62.0,49.0,43.7,31.0,56,35,13,30.02,29.91,7,2,20,0.00
2013-5-15,81.0,67.2,54.0,53.0,49.0,43.0,75,55,28,30.06,29.96,8,2,13,0.00
2013-5-16,77.0,58.9,55.0,54.0,30.1,-99.9,85,68,39,30.02,29.90,6,2,12,0.00
2013-5-17,69.0,61.9,58.0,55.0,47.3,-99.9,87,73,55,30.04,29.93,4,1,12,0.03
2013-5-18,77.0,66.1,58.0,55.0,52.9,51.0,80,64,43,30.07,29.99,6,2,14,0.00
2013-5-19,84.0,67.5,54.0,56.0,52.8,50.0,85,62,31,30.03,29.89,5,2,13,0.00
2013-5-20,93.0,74.2,56.0,56.0,45.2,25.0,84,47,9,29.98,29.87,19,5,29,0.00
2013-5-21,87.0,72.2,56.0,58.0,52.6,47.0,79,55,26,29.95,29.84,7,1,13,0.00
2013-5-22,79.0,66.2,59.0,56.0,53.9,51.0,86,67,38,29.87,29.76,6,2,17,0.00
2013-5-23,73.0,64.1,58.0,53.0,49.8,47.0,81,62,40,29.97,29.84,10,2,13,0.00
2013-5-24,77.0,64.8,55.0,50.0,48.9,46.0,75,58,34,30.02,29.94,11,3,14,0.00
2013-5-25,76.0,62.9,52.0,52.0,48.0,40.0,83,62,29,30.08,29.99,6,2,12,0.00
2013-5-26,76.0,62.3,52.0,53.0,49.7,46.0,86,66,36,30.09,30.01,5,1,13,0.00
2013-5-27,80.0,65.2,54.0,56.0,52.4,48.0,82,65,38,30.05,29.89,7,2,17,0.00
2013-5-28,75.0,64.0,57.0,57.0,53.8,51.0,83,70,52,29.92,29.79,6,2,11,0.00
2013-5-29,85.0,69.6,55.0,58.0,53.8,49.0,88,61,32,29.84,29.75,5,1,12,0.00
2013-5-30,87.0,71.7,57.0,57.0,54.4,52.0,82,58,31,29.90,29.79,4,1,14,0.00
2013-5-31,89.0,71.0,58.0,59.0,56.6,53.0,87,64,34,29.93,29.82,6,1,11,0.00
2013-6-1,102.0,78.0,60.0,62.0,55.2,40.0,83,54,12,29.88,29.73,11,2,13,0.00
2013-6-2,88.0,72.3,60.0,61.0,57.8,54.0,84,63,37,29.83,29.75,11,3,14,0.00
2013-6-3,84.0,68.3,58.0,57.0,54.5,50.0,85,65,34,29.92,29.81,4,1,14,0.00
2013-6-4,82.0,68.2,60.0,58.0,55.0,51.0,83,66,35,30.00,29.90,8,2,12,0.00
2013-6-5,84.0,68.1,56.0,57.0,54.4,52.0,86,65,35,30.03,29.90,7,2,11,0.00
2013-6-6,86.0,69.7,55.0,58.0,55.1,51.0,85,62,37,29.97,29.87,7,2,11,0.00
2013-6-7,87.0,69.8,54.0,59.0,55.8,50.0,87,64,37,29.93,29.79,5,1,11,0.00
2013-6-8,89.0,71.0,57.0,59.0,56.8,53.0,87,64,36,29.92,29.81,10,2,12,0.00
2013-6-9,89.0,70.6,56.0,60.0,55.2,52.0,87,62,28,29.94,29.85,6,2,15,0.00
2013-6-10,83.0,68.5,57.0,55.0,52.5,49.0,86,61,33,29.98,29.90,6,2,14,0.00
2013-6-11,94.0,74.7,57.0,58.0,51.2,43.0,79,50,17,29.97,29.88,6,1,11,0.00
2013-6-12,84.0,71.6,58.0,60.0,56.8,49.0,85,62,32,30.01,29.92,10,2,12,0.00
2013-6-13,88.0,71.1,57.0,58.0,54.7,50.0,87,60,27,30.03,29.91,6,2,10,0.00
2013-6-14,88.0,71.6,55.0,57.0,53.1,44.0,83,57,22,29.94,29.83,6,1,11,0.00
2013-6-15,85.0,68.4,56.0,56.0,52.3,44.0,87,61,26,30.00,29.90,10,3,12,0.00
2013-6-16,87.0,70.3,54.0,56.0,52.6,48.0,85,58,26,30.05,29.96,8,2,12,0.00
2013-6-17,90.0,73.4,57.0,57.0,53.0,47.0,79,53,23,29.99,29.89,10,2,13,0.00
2013-6-18,87.0,72.8,60.0,57.0,53.5,48.0,75,54,28,29.92,29.84,7,2,14,0.00
2013-6-19,85.0,70.6,57.0,58.0,53.3,50.0,84,58,30,29.89,29.81,6,2,16,0.00
2013-6-20,83.0,67.6,59.0,53.0,51.3,50.0,74,58,32,29.88,29.82,4,1,10,0.00
2013-6-22,86.0,76.5,65.0,56.0,53.6,51.0,69,47,33,29.92,29.83,10,2,15,0.00
2013-6-23,81.0,68.5,58.0,57.0,53.3,49.0,85,61,33,29.91,29.80,6,2,10,0.00
2013-6-24,62.0,60.6,59.0,56.0,55.3,55.0,89,83,78,29.97,29.84,5,2,7,0.00
2013-6-27,99.0,87.6,78.0,61.0,59.1,58.0,52,40,27,30.02,29.97,2,1,11,0.00
2013-6-28,101.0,85.1,69.0,60.0,58.1,56.0,64,43,24,30.00,29.88,4,1,11,0.00
2013-6-29,105.0,86.8,71.0,62.0,57.2,51.0,57,39,17,29.91,29.76,4,1,12,0.00
2013-6-30,108.0,88.0,76.0,65.0,57.4,50.0,53,38,17,29.81,29.73,12,2,15,0.00
2013-7-1,99.0,85.8,73.0,63.0,58.1,47.0,65,43,19,29.90,29.79,6,2,14,0.00
2013-7-2,98.0,81.5,70.0,61.0,57.1,50.0,61,46,20,29.97,29.89,6,2,13,0.00
2013-7-3,95.0,81.2,70.0,62.0,58.3,55.0,72,48,29,29.96,29.80,9,1,12,0.00
2013-7-4,97.0,81.5,67.0,62.0,57.7,54.0,69,47,24,29.84,29.74,11,2,12,0.00
2013-7-5,92.0,76.9,63.0,61.0,57.1,53.0,79,54,27,29.87,29.77,6,1,11,0.00
2013-7-6,91.0,74.6,62.0,62.0,59.9,57.0,84,63,33,29.85,29.76,6,1,10,0.00
2013-7-7,95.0,77.9,62.0,61.0,59.6,57.0,84,57,28,29.88,29.78,7,1,11,0.00
2013-7-8,100.0,80.4,65.0,60.0,55.6,46.0,73,47,20,29.95,29.87,3,1,8,0.00
2013-7-9,101.0,84.7,71.0,60.0,52.0,45.0,52,34,16,29.98,29.92,9,2,19,0.00
2013-7-10,87.0,77.5,74.0,62.0,54.8,-99.9,62,49,41,29.99,29.92,5,1,12,0.00
2013-7-11,81.0,75.1,71.0,64.0,60.9,56.0,73,62,48,30.02,29.91,4,0,15,0.02
2013-7-12,91.0,77.6,69.0,65.0,62.3,59.0,81,62,34,29.95,29.86,7,1,11,0.00
2013-7-13,94.0,78.8,62.0,60.0,56.9,53.0,78,51,26,29.97,29.87,9,2,11,0.00
2013-7-14,96.0,80.3,68.0,62.0,58.1,55.0,67,49,27,29.95,29.83,6,1,11,0.00
2013-7-15,93.0,79.2,67.0,60.0,56.3,50.0,67,47,31,29.89,29.82,9,2,13,0.00
2013-7-16,93.0,76.6,61.0,51.0,44.8,33.0,57,37,13,30.02,29.88,7,2,16,0.00
2013-7-17,95.0,76.0,60.0,46.0,41.2,36.0,51,32,14,30.05,29.96,7,1,15,0.00
2013-7-18,96.0,79.7,63.0,57.0,45.1,38.0,47,31,16,30.01,29.87,6,1,12,0.00
2013-7-19,98.0,79.5,65.0,59.0,54.9,49.0,67,46,22,29.92,29.81,11,2,16,0.00
2013-7-20,84.0,71.6,65.0,70.0,59.3,-99.9,80,68,52,29.91,29.81,5,2,9,0.02
2013-7-21,79.0,73.0,69.0,66.0,63.5,61.0,83,73,58,29.97,29.82,4,1,7,0.00
2013-7-22,91.0,76.6,67.0,66.0,63.0,60.0,85,65,41,30.00,29.93,9,2,13,0.00
2013-7-23,90.0,76.9,66.0,62.0,60.3,58.0,77,58,37,30.05,29.94,9,1,15,0.00
2013-7-24,93.0,78.5,66.0,63.0,58.4,54.0,71,52,35,30.00,29.90,5,1,13,0.00
2013-7-25,94.0,79.2,65.0,61.0,58.5,54.0,73,51,33,30.02,29.92,10,2,13,0.00
2013-7-26,84.0,76.0,69.0,64.0,61.0,59.0,71,60,48,30.11,29.99,5,1,9,0.00
2013-7-27,93.0,78.8,65.0,64.0,60.6,58.0,78,56,32,30.03,29.88,4,1,14,0.00
2013-7-28,90.0,74.6,63.0,61.0,57.3,49.0,84,58,28,29.95,29.86,10,2,17,0.00
2013-7-29,89.0,72.0,57.0,58.0,54.0,47.0,84,58,24,30.06,29.93,5,1,14,0.00
2013-7-30,90.0,74.2,60.0,58.0,54.9,51.0,79,55,27,30.13,30.02,5,2,12,0.00
2013-7-31,88.0,71.7,59.0,58.0,55.6,52.0,79,59,33,30.12,29.99,5,1,15,0.00
2013-8-1,87.0,70.4,55.0,57.0,52.6,44.0,85,58,23,30.08,29.93,5,1,9,0.00
2013-8-2,87.0,71.6,57.0,57.0,54.0,51.0,84,58,31,30.00,29.91,7,2,13,0.00
2013-8-3,89.0,72.2,57.0,58.0,54.5,46.0,84,58,23,30.02,29.93,6,2,12,0.00
2013-8-4,91.0,73.7,58.0,59.0,52.4,42.0,84,53,18,30.04,29.94,5,2,11,0.00
2013-8-5,92.0,74.9,59.0,55.0,47.9,35.0,68,44,14,30.02,29.93,6,1,10,0.00
2013-8-6,89.0,72.6,56.0,55.0,47.7,30.0,79,48,12,30.05,29.97,5,1,12,0.00
2013-8-7,86.0,71.5,57.0,56.0,50.2,39.0,72,51,19,30.10,30.00,6,1,13,0.00
2013-8-8,85.0,66.2,57.0,55.0,49.1,45.0,65,56,25,30.03,29.92,2,1,13,0.00
2013-8-9,86.0,71.5,56.0,56.0,50.9,45.0,77,52,24,30.00,29.92,7,2,12,0.00
2013-8-10,84.0,68.7,55.0,56.0,52.0,48.0,84,59,29,30.06,29.98,6,1,12,0.00
2013-8-11,88.0,72.5,57.0,56.0,52.8,49.0,80,53,26,30.02,29.91,10,2,12,0.00
2013-8-12,91.0,73.9,58.0,59.0,53.0,47.0,76,53,22,29.99,29.90,7,2,11,0.00
2013-8-13,95.0,75.5,59.0,60.0,52.4,-99.9,82,53,22,30.01,29.88,7,2,12,0.00
2013-8-14,101.0,79.0,60.0,61.0,52.7,37.0,74,49,11,29.95,29.81,7,2,11,0.00
2013-8-15,100.0,71.2,65.0,61.0,33.6,-99.9,72,40,15,29.95,29.88,6,2,13,0.00
2013-8-16,97.0,77.2,67.0,58.0,47.5,-99.9,62,41,23,29.97,29.91,6,2,12,0.00
2013-8-17,98.0,82.6,68.0,57.0,51.9,46.0,58,37,21,29.97,29.82,7,2,12,0.00
2013-8-18,100.0,83.1,69.0,60.0,54.8,46.0,52,39,25,29.89,29.80,5,1,14,0.00
2013-8-19,93.0,75.4,69.0,64.0,50.7,-99.9,83,52,35,29.94,29.84,7,2,12,0.07
2013-8-20,95.0,79.1,66.0,62.0,53.1,-99.9,78,48,21,29.93,29.85,3,1,11,0.00
2013-8-21,99.0,81.2,65.0,54.0,50.4,45.0,61,38,17,29.94,29.83,4,1,10,0.00
2013-8-22,98.0,85.1,67.0,50.0,45.0,38.0,46,26,18,29.94,29.82,7,2,11,0.00
2013-8-23,98.0,81.4,66.0,51.0,44.7,41.0,45,30,15,29.89,29.74,5,1,15,0.00
2013-8-24,97.0,80.4,64.0,54.0,46.8,39.0,52,34,14,29.89,29.76,9,2,16,0.00
2013-8-25,96.0,79.8,68.0,61.0,54.6,41.0,62,45,18,29.94,29.84,10,2,17,0.00
2013-8-26,86.0,79.4,72.0,64.0,60.4,56.0,62,53,44,29.96,29.85,5,1,9,0.00
2013-8-27,92.0,80.8,72.0,64.0,61.7,60.0,68,53,38,29.87,29.83,7,1,11,0.00
2013-8-28,97.0,90.0,78.0,61.0,59.3,57.0,50,36,30,29.92,29.81,15,4,16,0.00
2013-8-29,97.0,84.4,74.0,66.0,59.3,55.0,53,44,30,29.97,29.90,4,1,18,0.00
2013-8-30,93.0,84.6,77.0,72.0,65.0,58.0,80,53,40,29.99,29.92,10,3,15,0.00
2013-8-31,92.0,81.8,77.0,72.0,69.0,65.0,81,67,44,30.00,29.88,6,1,14,0.00
2013-9-1,92.0,80.7,73.0,68.0,65.5,63.0,80,62,39,29.96,29.86,4,1,12,0.00
2013-9-2,93.0,81.9,69.0,66.0,62.5,60.0,80,55,35,29.95,29.83,7,2,11,0.00
2013-9-3,97.0,85.1,73.0,64.0,60.2,56.0,66,45,29,29.92,29.82,9,2,15,0.00
2013-9-4,100.0,86.6,74.0,63.0,58.9,55.0,59,41,27,29.94,29.84,11,2,14,0.00
2013-9-5,101.0,87.9,77.0,60.0,56.6,51.0,52,36,25,29.90,29.82,10,1,15,0.00
2013-9-6,97.0,85.8,76.0,58.0,52.8,49.0,44,33,24,29.90,29.80,3,1,9,0.00
2013-9-7,97.0,85.0,75.0,63.0,55.0,49.0,48,37,21,29.89,29.80,17,2,22,0.00
2013-9-8,94.0,81.8,71.0,57.0,53.7,48.0,57,40,22,29.87,29.75,6,1,13,0.00
2013-9-9,91.0,79.9,72.0,62.0,56.0,48.0,68,46,23,29.82,29.73,5,2,12,0.00
2013-9-10,88.0,75.0,63.0,59.0,54.5,51.0,74,52,29,29.97,29.81,7,2,12,0.00
2013-9-11,86.0,71.8,59.0,58.0,54.8,49.0,82,58,28,30.02,29.93,3,1,12,0.00
2013-9-14,98.0,90.8,74.0,55.0,51.9,48.0,48,28,19,29.75,29.60,5,2,9,0.00
2013-9-15,100.0,95.6,90.0,53.0,49.7,47.0,26,21,17,29.83,29.66,6,4,12,0.00
2013-9-16,99.0,93.5,85.0,50.0,46.8,43.0,30,21,16,29.91,29.68,9,4,15,0.00
2013-9-17,89.0,82.4,68.0,52.0,48.0,46.0,45,31,23,29.85,29.69,9,3,12,0.00
2013-9-18,77.0,77.0,77.0,56.0,56.0,56.0,48,48,48,29.85,29.85,2,2,2,0.00
2013-9-19,87.0,81.1,71.0,59.0,57.7,54.0,59,45,33,29.88,29.72,5,2,10,0.00
2013-9-20,79.0,70.5,63.0,60.0,59.2,57.0,81,68,53,29.92,29.83,7,2,10,0.00
2013-9-21,76.0,67.5,63.0,59.0,56.2,52.0,85,69,44,29.93,29.81,7,2,13,0.00
2013-9-22,77.0,65.6,57.0,56.0,51.9,47.0,86,64,36,29.90,29.80,12,2,12,0.00
2013-9-23,92.0,76.4,57.0,48.0,41.6,37.0,69,35,15,29.93,29.83,12,2,18,0.00
2013-9-24,88.0,74.6,61.0,49.0,40.7,36.0,45,31,19,29.97,29.87,3,1,9,0.00
2013-9-25,80.0,67.3,58.0,54.0,45.8,35.0,74,48,30,29.89,29.72,12,3,16,0.00
2013-9-26,72.0,62.2,56.0,52.0,46.4,36.0,80,58,27,29.96,29.75,5,2,14,0.02
2013-9-27,80.0,69.7,54.0,39.0,28.1,21.0,57,24,13,30.06,29.94,30,10,33,0.00
2013-9-28,87.0,71.7,57.0,34.0,27.1,21.0,30,20,11,30.09,29.97,4,1,12,0.00
2013-9-29,87.0,69.6,58.0,36.0,31.2,25.0,36,26,11,30.12,29.99,8,1,11,0.00
2013-9-30,87.0,70.8,58.0,42.0,34.1,29.0,38,27,15,30.04,29.89,3,1,14,0.00
2013-10-1,80.0,71.5,64.0,53.0,51.0,47.0,67,50,32,29.95,29.89,0,0,7,0.00
2013-10-2,78.0,66.2,56.0,56.0,53.1,49.0,89,66,37,30.02,29.90,9,2,12,0.00
2013-10-3,73.0,64.4,58.0,57.0,54.4,51.0,85,72,47,29.97,29.84,7,1,10,0.00
2013-10-4,78.0,71.2,58.0,55.0,22.2,16.0,87,21,10,30.12,29.93,40,23,46,0.00
2013-10-5,83.0,74.6,68.0,22.0,18.9,12.0,17,13,8,30.19,30.08,33,20,47,0.00
2013-10-6,90.0,75.5,61.0,22.0,18.9,14.0,18,12,6,30.15,29.99,23,3,26,0.00
2013-10-7,84.0,71.7,61.0,40.0,25.6,20.0,30,19,10,30.03,29.92,5,2,14,0.00
2013-10-8,75.0,64.9,54.0,52.0,40.4,32.0,78,44,24,29.97,29.84,10,3,15,0.00
2013-10-9,59.0,54.9,48.0,52.0,47.7,44.0,89,77,59,29.87,29.77,10,3,17,0.26
2013-10-10,63.0,54.2,45.0,46.0,42.9,40.0,89,68,43,30.09,29.88,5,2,11,0.04
2013-10-11,74.0,59.6,48.0,49.0,44.6,40.0,84,62,29,30.12,29.99,5,1,9,0.00
2013-10-12,77.0,63.7,52.0,53.0,46.5,41.0,79,57,30,30.03,29.92,7,1,10,0.00
2013-10-13,69.0,59.1,51.0,51.0,48.5,45.0,88,70,42,30.09,29.97,5,1,11,0.00
2013-10-14,80.0,69.4,51.0,49.0,35.8,28.0,87,38,17,30.08,29.97,20,10,31,0.00
2013-10-15,82.0,74.8,65.0,31.0,27.7,21.0,26,18,14,30.06,29.91,18,12,30,0.00
2013-10-16,81.0,71.4,60.0,26.0,23.8,19.0,26,17,10,30.14,30.02,25,10,32,0.00
2013-10-17,81.0,65.9,54.0,39.0,29.3,25.0,45,27,14,30.10,29.96,10,2,10,0.00
2013-10-18,87.0,70.5,56.0,40.0,32.2,21.0,54,29,9,30.07,29.96,15,4,17,0.00
2013-10-19,88.0,72.0,60.0,42.0,28.7,20.0,43,22,9,30.07,29.97,5,2,13,0.00
2013-10-20,82.0,67.1,56.0,45.0,36.4,29.0,52,35,16,30.03,29.92,7,1,10,0.00
2013-10-21,84.0,67.4,54.0,42.0,39.2,36.0,58,39,19,30.03,29.93,7,1,10,0.00
2013-10-22,88.0,69.7,55.0,55.0,36.6,27.0,72,35,11,30.04,29.91,4,1,7,0.00
2013-10-23,70.0,58.8,50.0,54.0,50.6,44.0,91,76,57,30.03,29.94,6,1,9,0.00
2013-10-24,67.0,59.0,54.0,54.0,51.0,49.0,84,75,61,30.12,30.00,6,2,9,0.00
2013-10-25,77.0,60.5,51.0,54.0,50.0,42.0,92,72,42,30.19,30.06,4,1,10,0.00
2013-10-26,89.0,72.2,57.0,51.0,38.7,30.0,52,33,12,30.13,29.99,3,1,6,0.00
2013-10-27,80.0,66.6,58.0,55.0,42.6,35.0,81,45,24,30.01,29.84,4,2,11,0.00
2013-10-28,58.0,54.1,51.0,52.0,46.1,-99.9,86,79,65,30.01,29.83,13,3,19,0.18
2013-10-29,59.0,53.4,47.0,47.0,45.0,42.0,89,74,55,30.07,30.00,4,1,7,0.03
2013-10-30,70.0,57.2,46.0,47.0,39.0,31.0,87,56,26,30.13,30.03,18,4,23,0.01
2013-10-31,77.0,63.2,48.0,42.0,31.2,23.0,74,36,16,30.16,30.05,16,6,24,0.00
2013-11-1,82.0,71.7,60.0,30.0,28.6,28.0,29,21,14,30.15,29.99,15,6,23,0.00
2013-11-2,80.0,66.9,53.0,42.0,33.0,29.0,57,31,16,30.07,29.90,9,3,13,0.00
2013-11-3,68.0,56.2,47.0,51.0,43.6,38.0,82,64,39,30.01,29.87,3,1,9,0.00
2013-11-4,61.0,55.2,49.0,51.0,48.6,44.0,85,79,61,30.02,29.85,4,1,5,0.00
2013-11-5,68.0,61.8,51.0,48.0,19.9,10.0,86,25,12,30.22,30.01,33,10,36,0.00
2013-11-6,77.0,71.8,63.0,16.0,10.4,3.0,16,9,6,30.28,30.17,21,12,27,0.00
2013-11-7,82.0,67.7,56.0,26.0,20.4,15.0,23,17,8,30.19,30.05,7,1,10,0.00
2013-11-8,80.0,63.5,55.0,31.0,24.8,18.0,33,24,10,30.10,29.98,5,1,5,0.00
2013-11-9,79.0,61.7,51.0,34.0,27.3,15.0,45,30,9,30.14,30.04,5,1,6,0.00
2013-11-10,78.0,65.2,53.0,37.0,24.9,20.0,51,23,12,30.19,30.08,5,2,6,0.00
2013-11-11,84.0,66.6,52.0,38.0,33.2,27.0,53,32,14,30.17,30.06,11,2,15,0.00
2013-11-12,84.0,69.1,57.0,36.0,32.7,29.0,45,28,15,30.22,30.12,7,2,14,0.00
2013-11-13,87.0,74.5,61.0,34.0,27.2,20.0,30,19,10,30.12,29.96,25,7,27,0.00
2013-11-14,86.0,77.0,63.0,33.0,27.6,22.0,32,17,11,29.99,29.79,6,2,22,0.00
2013-11-15,64.0,58.4,53.0,51.0,42.4,31.0,82,57,29,29.82,29.73,4,1,11,0.09
2013-11-16,58.0,55.7,54.0,52.0,49.7,47.0,88,80,68,29.94,29.82,3,1,9,0.01
2013-11-18,66.0,59.4,53.0,50.0,48.0,47.0,84,67,51,30.22,30.10,3,1,7,0.00
2013-11-19,59.0,56.8,55.0,50.0,48.9,47.0,83,75,65,30.14,30.02,3,0,4,0.00
2013-11-20,59.0,56.3,54.0,51.0,49.4,48.0,88,78,69,30.04,29.96,0,0,4,0.04
2013-11-21,59.0,54.7,50.0,55.0,51.4,47.0,91,89,84,29.97,29.89,13,2,16,2.01
2013-11-22,53.0,50.4,49.0,47.0,38.6,35.0,86,64,57,30.04,29.89,36,22,43,0.17
2013-11-23,56.0,51.9,49.0,40.0,38.3,36.0,66,60,54,30.17,30.05,25,16,31,0.00
2013-11-24,61.0,56.1,52.0,40.0,38.7,37.0,62,52,43,30.27,30.17,19,10,25,0.00
2013-11-25,69.0,63.5,55.0,40.0,35.8,34.0,55,37,29,30.31,30.20,18,10,21,0.00
2013-11-26,72.0,64.2,56.0,39.0,35.9,33.0,53,36,25,30.26,30.11,11,3,13,0.00
2013-11-27,70.0,58.7,50.0,39.0,35.8,33.0,58,44,25,30.12,29.94,4,1,7,0.00
2013-11-28,67.0,55.8,48.0,42.0,35.9,34.0,62,49,29,30.14,29.99,5,1,9,0.00
2013-11-29,61.0,54.8,49.0,48.0,42.6,38.0,76,64,51,30.26,30.13,4,2,9,0.03
2013-11-30,71.0,61.1,51.0,44.0,38.6,33.0,76,46,29,30.26,30.13,19,7,26,0.00
2013-12-1,74.0,67.2,60.0,34.0,30.4,28.0,34,26,19,30.29,30.16,19,9,24,0.00
2013-12-2,72.0,61.3,51.0,34.0,30.6,27.0,50,32,19,30.19,29.97,3,1,8,0.00
2013-12-3,64.0,55.6,48.0,50.0,38.8,30.0,87,55,33,29.97,29.79,7,2,12,0.05
2013-12-4,55.0,49.8,44.0,47.0,26.9,17.0,83,44,26,30.05,29.82,14,5,23,0.02
2013-12-5,53.0,47.2,40.0,36.0,31.8,24.0,79,57,33,30.18,30.03,7,1,10,0.00
2013-12-6,51.0,47.4,42.0,37.0,35.0,33.0,75,62,49,30.26,30.16,4,1,10,0.00
2013-12-7,47.0,45.0,43.0,44.0,38.7,35.0,88,78,68,30.19,30.09,5,2,12,0.44
2013-12-8,49.0,44.8,41.0,40.0,30.2,13.0,85,59,31,30.29,30.18,20,4,33,0.00
2013-12-9,49.0,44.3,42.0,13.0,6.4,-1.0,28,21,14,30.44,30.29,35,13,54,0.00
2013-12-10,61.0,55.6,47.0,15.0,10.8,9.0,27,17,13,30.32,30.18,12,6,19,0.00
2013-12-11,65.0,55.4,41.0,21.0,14.8,12.0,35,21,14,30.27,30.20,21,8,25,0.00
2013-12-12,66.0,56.2,45.0,32.0,23.0,16.0,57,30,18,30.29,30.16,5,1,11,0.00
2013-12-13,68.0,51.2,40.0,34.0,28.5,16.0,69,45,16,30.32,30.19,8,2,16,0.00
2013-12-14,67.0,62.0,58.0,20.0,18.3,16.0,23,18,14,30.40,30.27,23,12,42,0.00
2013-12-15,73.0,69.5,61.0,26.0,22.9,20.0,26,17,15,30.29,30.15,27,16,32,0.00
2013-12-16,82.0,69.3,59.0,32.0,26.7,23.0,28,21,14,30.22,30.12,15,4,18,0.00
2013-12-17,81.0,69.5,62.0,33.0,29.6,26.0,32,23,15,30.19,30.03,5,1,10,0.00
2013-12-18,70.0,62.0,52.0,48.0,36.3,30.0,84,41,27,30.05,29.91,4,1,10,0.00
2013-12-19,52.0,49.1,46.0,45.0,43.3,38.0,87,80,71,29.91,29.79,10,3,30,0.44
2013-12-20,59.0,51.7,46.0,40.0,31.3,26.0,78,47,30,30.02,29.81,27,5,33,0.01
2013-12-21,55.0,46.0,41.0,43.0,39.4,37.0,86,78,61,30.18,30.01,4,1,7,0.00
2013-12-22,68.0,53.5,41.0,44.0,36.8,30.0,87,59,26,30.33,30.18,10,2,14,0.00
2013-12-23,69.0,66.9,64.0,34.0,32.4,30.0,28,27,27,30.40,30.28,25,14,29,0.00
2013-12-24,75.0,71.2,67.0,33.0,31.6,29.0,27,23,20,30.26,30.14,20,10,27,0.00
2013-12-25,70.0,66.7,63.0,29.0,22.4,12.0,24,19,12,30.29,30.16,33,16,46,0.00
2013-12-26,72.0,69.5,65.0,15.0,9.9,5.0,11,10,8,30.25,30.12,31,19,40,0.00
2013-12-27,76.0,68.3,56.0,22.0,16.6,12.0,26,14,10,30.22,30.09,17,6,22,0.00
2013-12-28,72.0,61.3,53.0,32.0,22.7,16.0,34,24,14,30.11,29.98,4,1,7,0.00
2013-12-29,67.0,63.7,61.0,17.0,11.8,7.0,18,13,10,30.21,30.00,38,18,46,0.00
2013-12-30,71.0,58.9,48.0,19.0,14.8,8.0,29,19,11,30.33,30.21,3,1,4,0.00
2013-12-31,71.0,55.2,47.0,25.0,20.1,18.0,37,26,13,30.28,30.15,4,1,6,0.00
2014-1-1,76.0,66.6,50.0,24.0,21.5,19.0,36,20,12,30.17,30.10,20,10,30,0.00
2014-1-2,77.0,67.7,55.0,31.0,27.9,27.0,34,23,16,30.10,30.05,10,4,14,0.00